YAOGAN-21 (40143 NORAD) Tracking and Keplerian Element Data

This shows tracking and keplerian element data for the satellite.

Feedback or suggestion? Click here.




ElementValue
Catalog40143
NameYAOGAN-21
Epoch Orbit57914
Epoch Day35.19677967
Epoch Year2025
RAAN91.1105
Inclination97.2202
Eccentricity0.0015307
Argument of Perigee65.2206
Mean Anonmoly295.0622
Mean Motion15.24072274
Decay Rate0.00013167
L11 40143U 14053A 25035.19677967 .00013167 00000+0 54304-3 0 9998
L22 40143 97.2202 91.1105 0015307 65.2206 295.0622 15.24072274579146



Live tracking and technical data element details for YAOGAN-21 (NORAD 40143). YAOGAN-21 can be tracked NOW for your location showing map with azimuth and elevation plus other details from your city location.







IsCatalogInMostPopularTable: catalog: 40143, numindb: 456
Update: records affected: 1



GetName: 40143 YAOGAN-21

Hit Count: updated at: Sat, 17 May 2025 08:29:26 GMT